Change the Weather History Date:

Sunday, August 4, 2013

  Actual Average Record
Temperature  
Mean Temperature 68 °F -  
Max Temperature 75 °F 84 °F 101 °F (1930)
Min Temperature 59 °F 62 °F 46 °F (1965)
Cooling Degree Days 2    
Growing Degree Days 18 (Base 50)    
Moisture  
Dew Point 59 °F    
Average Humidity 79    
Maximum Humidity 100    
Minimum Humidity 46    
Precipitation  
Precipitation 0.00 in - - ()
Sea Level Pressure  
Sea Level Pressure 30.04 in    
Wind  
Wind Speed 2 mph (NW)    
Max Wind Speed 14 mph    
Max Gust Speed 16 mph    
Visibility 7 miles    
Events Fog    
Averages and records for this station are not official NWS values.
T = Trace of Precipitation, MM = Missing Value Source: NWS Daily Summary

Daily Weather History Graph

Daily Weather History Graph

Search for Another Location

Airport or City:

Trip Planner

Search our weather history database for the weather conditions in past years. The results will help you decide how hot, cold, wet, or windy it might be!

Date:

Astronomy

Aug. 04, 2013 Rise Set
Actual Time 6:23 AM EDT 8:29 PM EDT
Civil Twilight 5:54 AM EDT 8:58 PM EDT
Nautical Twilight 5:18 AM EDT 9:35 PM EDT
Astronomical Twilight 4:38 AM EDT 10:14 PM EDT
Moon 4:23 AM EDT (8/4) 6:51 PM EDT (8/4)
Length of Visible Light 15h 04m
Length of Day
14h 05m
Waning Crescent, 5% of the Moon is Illuminated
Aug 4
Waning Crescent
Aug 6
New
Aug 14
First Quarter
Aug 20
Full
Aug 28
Last Quarter

Hourly Weather History & Observations

Time (EDT) Temp. Dew Point Humidity Pressure Visibility Wind Dir Wind Speed Gust Speed Precip Events Conditions
12:01 AM 64.4 °F 64.4 °F 100% 30.03 in 2.5 mi Calm Calm - N/A   Overcast
12:23 AM 64.4 °F 64.4 °F 100% 30.02 in 0.8 mi Calm Calm - N/A   Overcast
12:39 AM 64.4 °F 62.6 °F 94% 30.02 in 0.2 mi Calm Calm - N/A Fog Fog
12:53 AM 64.9 °F 64.0 °F 97% 29.98 in 0.2 mi Calm Calm - N/A Fog Fog
1:07 AM 64.4 °F 64.4 °F 100% 30.02 in 0.2 mi Calm Calm - N/A Fog Fog
1:53 AM 64.9 °F 63.0 °F 93% 29.99 in 0.2 mi Calm Calm - N/A Fog Fog
2:03 AM 64.4 °F 62.6 °F 94% 30.02 in 0.2 mi Calm Calm - N/A Fog Fog
2:28 AM 64.4 °F 62.6 °F 94% 30.03 in 2.5 mi Calm Calm - N/A   Overcast
2:35 AM 64.4 °F 62.6 °F 94% 30.03 in 5.0 mi WNW 3.5 mph - N/A   Overcast
2:53 AM 63.0 °F 62.1 °F 97% 29.99 in 4.0 mi Calm Calm - N/A   Overcast
3:10 AM 62.6 °F 60.8 °F 94% 30.03 in 8.0 mi Calm Calm - N/A   Overcast
3:53 AM 64.0 °F 61.0 °F 90% 29.99 in 8.0 mi Calm Calm - N/A   Overcast
4:53 AM 64.0 °F 61.0 °F 90% 30.00 in 5.0 mi Calm Calm - N/A   Overcast
5:53 AM 63.0 °F 60.1 °F 90% 30.01 in 5.0 mi SSW 3.5 mph - N/A   Overcast
6:53 AM 63.0 °F 60.1 °F 90% 30.02 in 5.0 mi Calm Calm - N/A   Overcast
7:32 AM 62.6 °F 59.0 °F 88% 30.05 in 6.0 mi Calm Calm - N/A   Overcast
7:53 AM 63.0 °F 59.0 °F 87% 30.03 in 6.0 mi Calm Calm - N/A   Overcast
8:33 AM 62.6 °F 59.0 °F 88% 30.07 in 7.0 mi Calm Calm - N/A   Scattered Clouds
8:46 AM 64.4 °F 59.0 °F 83% 30.07 in 7.0 mi Variable 3.5 mph - N/A   Mostly Cloudy
8:53 AM 64.0 °F 59.0 °F 84% 30.04 in 7.0 mi Calm Calm - N/A   Mostly Cloudy
9:35 AM 64.4 °F 60.8 °F 88% 30.09 in 8.0 mi NW 6.9 mph - N/A   Mostly Cloudy
9:53 AM 64.9 °F 59.0 °F 81% 30.06 in 10.0 mi Variable 3.5 mph - N/A   Scattered Clouds
10:53 AM 68.0 °F 57.0 °F 68% 30.06 in 10.0 mi Calm Calm - N/A   Partly Cloudy
11:53 AM 69.1 °F 57.0 °F 65% 30.06 in 10.0 mi WSW 3.5 mph - N/A   Mostly Cloudy
12:53 PM 72.0 °F 55.9 °F 57% 30.06 in 10.0 mi Variable 6.9 mph - N/A   Mostly Cloudy
1:53 PM 75.0 °F 57.9 °F 55% 30.05 in 10.0 mi North 8.1 mph 16.1 mph N/A   Mostly Cloudy
2:53 PM 75.0 °F 55.0 °F 50% 30.04 in 10.0 mi NNW 10.4 mph 16.1 mph N/A   Clear
3:53 PM 75.0 °F 53.1 °F 46% 30.04 in 10.0 mi North 6.9 mph - N/A   Partly Cloudy
4:53 PM 75.0 °F 54.0 °F 48% 30.03 in 10.0 mi NNW 13.8 mph - N/A   Partly Cloudy
5:53 PM 75.0 °F 53.1 °F 46% 30.04 in 10.0 mi NNW 6.9 mph - N/A   Partly Cloudy
6:53 PM 73.0 °F 53.1 °F 49% 30.04 in 10.0 mi NNW 4.6 mph - N/A   Partly Cloudy
7:53 PM 71.1 °F 53.1 °F 53% 30.05 in 10.0 mi NW 4.6 mph - N/A   Clear
8:53 PM 66.9 °F 52.0 °F 59% 30.06 in 10.0 mi NNW 3.5 mph - N/A   Partly Cloudy
9:53 PM 63.0 °F 54.0 °F 72% 30.08 in 10.0 mi Calm Calm - N/A   Partly Cloudy
10:53 PM 60.1 °F 55.0 °F 83% 30.09 in 10.0 mi Calm Calm - N/A   Clear
11:53 PM 59.0 °F 55.0 °F 87% 30.09 in 10.0 mi Calm Calm - N/A   Clear